CW8843 Weather Reports


time (UTC)temp
C
wind
direction
speed
KPH
gust
KPH
rain 1hr
cm
rain 24hr
cm
rain mn
cm
humidity
%
barometer
mb
20260509054653 13 128 16.1 22.5 0.00 0.00 0.00 50 1015.1
20260509053643 14 85 16.1 22.5 0.00 0.00 0.00 49 1015.0
20260509052632 14 96 14.5 22.5 0.00 0.00 0.00 45 1014.8
20260509051625 14 107 14.5 20.9 0.00 0.00 0.00 45 1014.9
20260509050653 15 112 11.3 19.3 0.00 0.00 0.00 44 1014.9
20260509045632 16 92 6.4 19.3 0.00 0.00 0.00 41 1014.9
20260509044641 15 144 12.9 20.9 0.00 0.00 0.00 44 1014.6
20260509043613 15 111 14.5 20.9 0.00 0.00 0.00 44 1014.6
20260509042624 16 128 14.5 22.5 0.00 0.00 0.00 43 1014.5
20260509041614 15 67 14.5 20.9 0.00 0.00 0.00 43 1014.4
20260509040621 15 98 11.3 17.7 0.00 0.00 0.00 43 1014.5
20260509035643 16 117 11.3 16.1 0.00 0.00 0.00 43 1014.6
20260509034614 16 136 11.3 16.1 0.00 0.00 0.00 42 1014.6
20260509033616 16 116 8.0 14.5 0.00 0.00 0.00 40 1014.4
20260509032623 17 104 9.7 17.7 0.00 0.00 0.00 39 1014.2
20260509031614 17 360 9.7 17.7 0.00 0.00 0.00 39 1014.0
20260509030636 17 119 9.7 17.7 0.00 0.00 0.00 39 1013.9
20260509025629 18 360 8.0 16.1 0.00 0.00 0.00 38 1013.7
20260509024635 18 117 8.0 14.5 0.00 0.00 0.00 37 1013.6
20260509023621 18 116 8.0 12.9 0.00 0.00 0.00 36 1013.4
20260509022631 19 360 6.4 9.7 0.00 0.00 0.00 36 1013.2
20260509021616 20 360 4.8 9.7 0.00 0.00 0.00 35 1013.1
20260509020623 21 360 4.8 8.0 0.00 0.00 0.00 32 1013.0
20260509015624 22 360 1.6 4.8 0.00 0.00 0.00 29 1013.0
20260509014617 22 360 0.0 6.4 0.00 0.00 0.00 26 1013.0
20260509013625 22 360 4.8 9.7 0.00 0.00 0.00 26 1012.9
20260509012615 22 360 4.8 16.1 0.00 0.00 0.00 26 1012.9
20260509011645 22 360 8.0 17.7 0.00 0.00 0.00 25 1013.0
20260509010615 23 256 4.8 19.3 0.00 0.00 0.00 24 1013.0
20260509005652 23 360 6.4 16.1 0.00 0.00 0.00 24 1013.0
20260509004618 23 360 4.8 16.1 0.00 0.00 0.00 24 1013.0
20260509003625 24 360 8.0 14.5 0.00 0.00 0.00 22 1013.0
20260509002628 23 360 9.7 16.1 0.00 0.00 0.00 22 1013.2
20260509001616 23 360 6.4 14.5 0.00 0.00 0.00 21 1013.2
20260509000624 23 360 8.0 16.1 0.00 0.00 0.00 21 1013.3
20260508235621 23 248 6.4 14.5 0.00 0.00 0.00 21 1013.4
20260508234629 23 274 8.0 16.1 0.00 0.00 0.00 21 1013.5
20260508233621 23 360 1.6 19.3 0.00 0.00 0.00 21 1013.5
20260508232631 23 281 8.0 19.3 0.00 0.00 0.00 22 1013.5
20260508231617 23 194 4.8 16.1 0.00 0.00 0.00 21 1013.6
20260508230623 23 252 6.4 17.7 0.00 0.00 0.00 22 1013.6
20260508225622 23 255 6.4 11.3 0.00 0.00 0.00 23 1013.7
20260508224650 23 182 8.0 17.7 0.00 0.00 0.00 24 1013.8
20260508223619 23 177 4.8 9.7 0.00 0.00 0.00 24 1014.0
20260508222630 22 304 6.4 17.7 0.00 0.00 0.00 23 1014.3
20260508221625 22 253 8.0 19.3 0.00 0.00 0.00 23 1014.4
20260508220615 22 252 4.8 16.1 0.00 0.00 0.00 24 1014.6
20260508215615 22 251 3.2 16.1 0.00 0.00 0.00 25 1014.6
20260508214623 22 311 9.7 16.1 0.00 0.00 0.00 24 1014.8
20260508213652 22 173 3.2 12.9 0.00 0.00 0.00 24 1014.8
20260508212620 22 261 12.9 20.9 0.00 0.00 0.00 25 1015.2
20260508211628 22 269 8.0 17.7 0.00 0.00 0.00 25 1015.2
20260508210653 22 217 4.8 11.3 0.00 0.00 0.00 25 1015.2
20260508205635 21 266 4.8 22.5 0.00 0.00 0.00 26 1015.4
20260508204622 22 211 4.8 12.9 0.00 0.00 0.00 25 1015.4
20260508203649 21 257 1.6 14.5 0.00 0.00 0.00 28 1015.6
20260508202616 21 313 8.0 17.7 0.00 0.00 0.00 25 1015.7
20260508201625 21 209 4.8 14.5 0.00 0.00 0.00 26 1015.7
20260508200618 21 309 8.0 17.7 0.00 0.00 0.00 26 1015.8
20260508195620 21 232 4.8 17.7 0.00 0.00 0.00 27 1015.8
20260508194630 21 298 8.0 20.9 0.00 0.00 0.00 28 1015.9
20260508193623 21 336 8.0 17.7 0.00 0.00 0.00 27 1015.9
20260508192613 21 230 8.0 17.7 0.00 0.00 0.00 26 1016.0
20260508191623 21 246 12.9 19.3 0.00 0.00 0.00 27 1016.2
20260508190613 21 318 9.7 20.9 0.00 0.00 0.00 26 1016.1
20260508185618 20 248 6.4 16.1 0.00 0.00 0.00 26 1016.2
20260508184626 20 273 8.0 19.3 0.00 0.00 0.00 27 1016.3
20260508183635 20 235 4.8 14.5 0.00 0.00 0.00 26 1016.4
20260508182622 20 186 8.0 12.9 0.00 0.00 0.00 29 1016.4
20260508181634 20 248 4.8 17.7 0.00 0.00 0.00 29 1016.6
20260508180644 20 116 4.8 19.3 0.00 0.00 0.00 29 1016.6
20260508175629 19 265 11.3 19.3 0.00 0.00 0.00 31 1016.8
20260508174639 19 279 6.4 14.5 0.00 0.00 0.00 30 1016.7
20260508173628 19 254 3.2 16.1 0.00 0.00 0.00 31 1016.7
20260508172637 19 294 3.2 11.3 0.00 0.00 0.00 32 1016.8
20260508171627 18 287 3.2 14.5 0.00 0.00 0.00 32 1016.9
20260508170614 18 280 3.2 12.9 0.00 0.00 0.00 32 1016.8
20260508165627 18 278 1.6 14.5 0.00 0.00 0.00 32 1016.8
20260508164615 18 307 4.8 12.9 0.00 0.00 0.00 33 1016.8
20260508163628 18 292 4.8 14.5 0.00 0.00 0.00 32 1016.8
20260508162615 18 274 4.8 9.7 0.00 0.00 0.00 32 1016.8
20260508161642 18 192 3.2 8.0 0.00 0.00 0.00 39 1016.8
20260508160628 17 190 3.2 8.0 0.00 0.00 0.00 39 1016.7
20260508155635 17 241 3.2 6.4 0.00 0.00 0.00 40 1016.7
20260508154621 17 277 4.8 8.0 0.00 0.00 0.00 39 1016.7
20260508153646 17 325 1.6 4.8 0.00 0.00 0.00 35 1016.6
20260508152630 17 360 0.0 8.0 0.00 0.00 0.00 36 1016.6
20260508151638 17 311 1.6 4.8 0.00 0.00 0.00 34 1016.6
20260508150630 16 175 1.6 4.8 0.00 0.00 0.00 39 1016.5
20260508145627 16 360 3.2 8.0 0.00 0.00 0.00 43 1016.5
20260508144612 15 108 4.8 11.3 0.00 0.00 0.00 48 1016.4
20260508143620 14 360 9.7 12.9 0.00 0.00 0.00 51 1016.4
20260508142612 13 109 8.0 12.9 0.00 0.00 0.00 52 1016.4
20260508141618 12 72 8.0 16.1 0.00 0.00 0.00 53 1016.3
20260508140623 12 78 9.7 14.5 0.00 0.00 0.00 55 1016.2
20260508135618 11 89 11.3 16.1 0.00 0.00 0.00 58 1016.2
20260508134648 10 144 11.3 17.7 0.00 0.00 0.00 59 1016.2
20260508133622 10 137 11.3 20.9 0.00 0.00 0.00 61 1015.9
20260508132631 10 101 11.3 24.1 0.00 0.00 0.00 61 1015.8
20260508131620 10 84 14.5 20.9 0.00 0.00 0.00 62 1015.6
20260508130631 9 130 16.1 25.7 0.00 0.00 0.00 62 1015.4
20260508125629 9 148 14.5 24.1 0.00 0.00 0.00 61 1015.2
20260508124617 9 141 14.5 22.5 0.00 0.00 0.00 61 1015.1
20260508123643 10 116 16.1 24.1 0.00 0.00 0.00 59 1015.2
20260508122615 10 77 14.5 20.9 0.00 0.00 0.00 56 1015.1
20260508121626 10 155 12.9 19.3 0.00 0.00 0.00 56 1015.2
20260508120617 10 91 11.3 20.9 0.00 0.00 0.00 58 1015.1
20260508115637 10 131 14.5 22.5 0.00 0.00 0.00 61 1014.9
20260508114624 10 134 16.1 25.7 0.00 0.00 0.00 61 1014.8
20260508113636 10 118 16.1 22.5 0.00 0.00 0.00 55 1014.7
20260508112625 10 67 16.1 25.7 0.00 0.00 0.00 56 1014.7
20260508111615 10 102 16.1 27.4 0.00 0.00 0.00 59 1014.5
20260508110622 10 134 16.1 29.0 0.00 0.00 0.00 59 1014.5
20260508105622 10 117 16.1 27.4 0.00 0.00 0.00 61 1014.4
20260508104628 10 118 16.1 25.7 0.00 0.00 0.00 61 1014.4
20260508103616 10 90 14.5 24.1 0.00 0.00 0.00 62 1014.4
20260508102625 10 90 16.1 24.1 0.00 0.00 0.00 61 1014.4
20260508101636 10 115 14.5 27.4 0.00 0.00 0.00 63 1014.3
20260508100621 10 127 16.1 25.7 0.00 0.00 0.00 64 1014.3
20260508095624 10 100 14.5 24.1 0.00 0.00 0.00 63 1014.3
20260508094614 10 84 14.5 22.5 0.00 0.00 0.00 62 1014.2
20260508093628 10 144 14.5 25.7 0.00 0.00 0.00 61 1014.3
20260508092616 10 146 16.1 22.5 0.00 0.00 0.00 60 1014.3
20260508091625 10 78 14.5 27.4 0.00 0.00 0.00 58 1014.4
20260508090614 10 127 16.1 25.7 0.00 0.00 0.00 58 1014.4
20260508085636 11 139 16.1 29.0 0.00 0.00 0.00 52 1014.5
20260508084643 11 100 16.1 25.7 0.00 0.00 0.00 52 1014.4
20260508083631 11 94 17.7 27.4 0.00 0.00 0.00 55 1014.4
20260508082618 11 115 16.1 30.6 0.00 0.00 0.00 57 1014.5
20260508081625 11 120 17.7 33.8 0.00 0.00 0.00 55 1014.5
20260508080619 11 158 19.3 29.0 0.00 0.00 0.00 53 1014.5
20260508075617 11 121 20.9 29.0 0.00 0.00 0.00 51 1014.6
20260508074624 11 155 17.7 27.4 0.00 0.00 0.00 53 1014.5
20260508073615 11 126 16.1 30.6 0.00 0.00 0.00 54 1014.6
20260508072649 12 134 17.7 29.0 0.00 0.00 0.00 51 1014.4
20260508071615 12 123 16.1 25.7 0.00 0.00 0.00 49 1014.4
20260508070642 12 68 19.3 27.4 0.00 0.00 0.00 51 1014.4
20260508065619 12 124 16.1 27.4 0.00 0.00 0.00 51 1014.4
20260508064612 12 132 17.7 27.4 0.00 0.00 0.00 53 1014.3
20260508063619 12 63 17.7 27.4 0.00 0.00 0.00 52 1014.2
20260508062624 12 128 17.7 27.4 0.00 0.00 0.00 50 1014.2
20260508061652 12 132 16.1 24.1 0.00 0.00 0.00 50 1014.1
20260508060619 12 88 17.7 30.6 0.00 0.00 0.00 51 1014.1
20260508055618 13 97 17.7 24.1 0.00 0.00 0.00 50 1014.1